Woodinville, Washington, United States (98072)
Lat: 47.75N, Lon: 122.16W
Wx Zone: WAZ505
Local Info
Past Weather Observations for Sunday, August 31, 2014

NOTE: This archive is for the closest National Weather Service station to Woodinville. Information may differ from the station used for current weather conditions.

Click here for Long-term Archive

Time Weather Temperature Dewpoint Humidity Pressure Winds Precip Visibility
23:53
Mostly Cloudy
59°F / 15°C 52°F / 11°C 77% 30.09 in
(1019 mb)
N 3.5 mph
(N 6 kph)
- 10SM
22:53
Overcast
61°F / 16°C 52°F / 11°C 72% 30.06 in
(1018 mb)
NE 4.6 mph
(NE 7 kph)
- 10SM
21:53
Partly Cloudy
59°F / 15°C 52°F / 11°C 77% 30.06 in
(1018 mb)
N 4.6 mph
(N 7 kph)
- 10SM
20:53
Overcast
61°F / 16°C 52°F / 11°C 72% 30.06 in
(1018 mb)
N 4.6 mph
(N 7 kph)
- 10SM
19:53
Mostly Cloudy
61°F / 16°C 54°F / 12°C 77% 30.06 in
(1018 mb)
NE 4.6 mph
(NE 7 kph)
- 10SM
18:53
Mostly Cloudy
64°F / 18°C 45°F / 7°C 49% 30.06 in
(1018 mb)
Calm - 10SM
17:53
Overcast
66°F / 19°C 46°F / 8°C 49% 30.04 in
(1017 mb)
Calm - 10SM
16:53
Mostly Cloudy
64°F / 18°C 50°F / 10°C 60% 30.06 in
(1018 mb)
W 3.5 mph
(W 6 kph)
- 10SM
14:53
Partly Cloudy
66°F / 19°C 54°F / 12°C 64% 30.06 in
(1018 mb)
SW 5.8 mph
(SW 9 kph)
- 10SM
13:53
Mostly Cloudy
66°F / 19°C 54°F / 12°C 64% 30.06 in
(1018 mb)
W 5.8 mph
(W 9 kph)
- 10SM
12:53
Partly Cloudy
66°F / 19°C 54°F / 12°C 64% 30.06 in
(1018 mb)
NW 6.9 mph
(NW 11 kph)
- 10SM
11:53
Mostly Cloudy
63°F / 17°C 55°F / 13°C 77% 30.09 in
(1019 mb)
SSW 8.1 mph
(SSW 13 kph)
- 10SM
11:00
Overcast
61°F / 16°C 55°F / 13°C 83% 30.09 in
(1019 mb)
SW 3.5 mph
(SW 6 kph)
- 10SM
10:53
Mostly Cloudy
61°F / 16°C 55°F / 13°C 83% 30.09 in
(1019 mb)
Calm - 10SM
09:53
Mostly Cloudy
63°F / 17°C 54°F / 12°C 73% 30.06 in
(1018 mb)
S 8.1 mph
(S 13 kph)
- 10SM
09:23
Mostly Cloudy
61°F / 16°C 54°F / 12°C 77% 30.06 in
(1018 mb)
S 8.1 mph
(S 13 kph)
- 10SM
09:01
Mostly Cloudy
61°F / 16°C 54°F / 12°C 77% 30.06 in
(1018 mb)
S 9.2 mph
(S 15 kph)
- 10SM
08:53
Overcast
61°F / 16°C 54°F / 12°C 77% 30.06 in
(1018 mb)
S 6.9 mph
(S 11 kph)
- 10SM
07:53
Overcast
57°F / 14°C 54°F / 12°C 88% 30.06 in
(1018 mb)
SSE 6.9 mph
(SSE 11 kph)
- 10SM
06:53
Overcast
55°F / 13°C 54°F / 12°C 94% 30.06 in
(1018 mb)
SSE 5.8 mph
(SSE 9 kph)
- 10SM
05:53
Overcast
55°F / 13°C 54°F / 12°C 94% 30.04 in
(1017 mb)
SSE 6.9 mph
(SSE 11 kph)
- 10SM
05:00
Mostly Cloudy
55°F / 13°C 54°F / 12°C 94% 30.04 in
(1017 mb)
SSE 4.6 mph
(SSE 7 kph)
- 10SM
04:53
Overcast
55°F / 13°C 54°F / 12°C 94% 30.04 in
(1017 mb)
SSE 3.5 mph
(SSE 6 kph)
- 10SM
03:53
Overcast
55°F / 13°C 54°F / 12°C 94% 30.04 in
(1017 mb)
ESE 6.9 mph
(ESE 11 kph)
0.00 in
(0.00 mm)
10SM
03:03
Overcast
Light Rain
55°F / 13°C 54°F / 12°C 94% 30.04 in
(1017 mb)
ESE 5.8 mph
(ESE 9 kph)
0.00 in
(0.00 mm)
9SM
02:53
Overcast
Light Rain
55°F / 13°C 54°F / 12°C 94% 30.04 in
(1017 mb)
Calm 0.08 in
(2.03 mm)
3SM
01:53
Overcast
Light Rain
55°F / 13°C 52°F / 11°C 88% 30.04 in
(1017 mb)
Variable 3.5 mph
(Variable 6 kph)
0.06 in
(1.52 mm)
5SM
01:38
Overcast
Rain
55°F / 13°C 54°F / 12°C 94% 30.04 in
(1017 mb)
S 4.6 mph
(S 7 kph)
0.05 in
(1.27 mm)
2SM
00:53
Overcast
Light Rain
57°F / 14°C 54°F / 12°C 88% 30.01 in
(1016 mb)
Calm 0.06 in
(1.52 mm)
5SM
00:48
Overcast
Light Rain
57°F / 14°C 54°F / 12°C 88% 30.01 in
(1016 mb)
SE 4.6 mph
(SE 7 kph)
0.05 in
(1.27 mm)
4SM
Time Weather Temperature Dewpoint Humidity Pressure Winds Precip Visibility


Weather for websites

WeatherForYou.com, LLC is not responsible for any damages or problems caused by this service. Current weather conditions are obtained from the closest station including government and personal stations which may have varying degrees of accuracy. Weather forecasts are derived from the NOAA NDFD. Like all things, this site belongs to Jesus Christ... He just trusts me to maintain it. If you have any questions or comments email webmaster@weatherforyou.com

Copyright © 2014, WeatherForYou.com LLC. All rights reserved.